This is the latest recevied weather packets stored in our database for station/object 4S6DRJ-13. If no packets are shown the sender has not sent any weather packets the latest 10 day(s).
| Time | Temp. | Humidity | Pressure | Rain* | Wind** | Luminosity | Snow |
|---|---|---|---|---|---|---|---|
| 1777600078 | 27.78° C | 87% | 1008.4 hPa | 0 mm | 1.34 m/s, 135° | 166 W/m² | - |
| 1777600017 | 27.78° C | 87% | 1008.3 hPa | 0 mm | 0.89 m/s, 127° | 162 W/m² | - |
| 1777599957 | 27.78° C | 88% | 1008 hPa | 0 mm | 0.89 m/s, 109° | 158 W/m² | - |
| 1777599895 | 27.78° C | 88% | 1008.2 hPa | 0 mm | 1.34 m/s, 146° | 155 W/m² | - |
| 1777599834 | 27.78° C | 88% | 1008.1 hPa | 0 mm | 1.79 m/s, 99° | 152 W/m² | - |
| 1777599773 | 27.78° C | 88% | 1008.1 hPa | 0 mm | 0.89 m/s, 133° | 150 W/m² | - |
| 1777599712 | 27.78° C | 87% | 1008.1 hPa | 0 mm | 1.34 m/s, 143° | 146 W/m² | - |
| 1777599651 | 27.78° C | 88% | 1008.1 hPa | 0 mm | 0.45 m/s, 151° | 143 W/m² | - |
| 1777599590 | 27.78° C | 88% | 1007.9 hPa | 0 mm | 0.89 m/s, 139° | 141 W/m² | - |
| 1777599529 | 27.78° C | 88% | 1008.2 hPa | 0 mm | 0.89 m/s, 127° | 138 W/m² | - |
| 1777599468 | 27.78° C | 88% | 1008 hPa | 0 mm | 0.45 m/s, 153° | 136 W/m² | - |
| 1777599407 | 27.78° C | 88% | 1007.9 hPa | 0 mm | 0.89 m/s, 115° | 133 W/m² | - |
| 1777599346 | 27.78° C | 88% | 1008 hPa | 0 mm | 0 m/s | 130 W/m² | - |
| 1777599286 | 27.78° C | 88% | 1008 hPa | 0 mm | 0.45 m/s, 129° | 127 W/m² | - |
| 1777599224 | 27.78° C | 88% | 1007.9 hPa | 0 mm | 0.89 m/s, 117° | 123 W/m² | - |
| 1777599163 | 27.78° C | 88% | 1008 hPa | 0 mm | 1.79 m/s, 128° | 120 W/m² | - |
| 1777599102 | 27.78° C | 88% | 1007.9 hPa | 0 mm | 0.89 m/s, 146° | 118 W/m² | - |
| 1777599041 | 27.78° C | 88% | 1008 hPa | 0 mm | 0.89 m/s, 107° | 116 W/m² | - |
| 1777598980 | 27.22° C | 88% | 1007.8 hPa | 0 mm | 0.45 m/s, 110° | 113 W/m² | - |
| 1777598919 | 27.22° C | 88% | 1007.9 hPa | 0 mm | 0.89 m/s, 151° | 111 W/m² | - |
| 1777598858 | 27.22° C | 88% | 1007.9 hPa | 0 mm | 0.45 m/s, 163° | 109 W/m² | - |
| 1777598797 | 27.78° C | 87% | 1007.8 hPa | 0 mm | 1.34 m/s, 157° | 108 W/m² | - |
| 1777598735 | 27.78° C | 88% | 1008.1 hPa | 0 mm | 1.34 m/s, 155° | 109 W/m² | - |
| 1777598675 | 27.78° C | 87% | 1007.8 hPa | 0 mm | 0.89 m/s, 106° | 112 W/m² | - |
| 1777598614 | 27.78° C | 88% | 1007.8 hPa | 0 mm | 1.34 m/s, 142° | 112 W/m² | - |
* Rain latest hour (hover to see other rain measurements)
** Current wind speed in m/s (hover to see current wind gust speed)